Vorticity
nan nan nan nan nan nan nan nan nan nan nan nan nan nan nan nan nan nan nan nan nan nan nan nan nan nan nan nan nan nan nan nan nan nan nan nan nan nan nan nan nan nan nan nan nan nan nan nan nan nan nan nan nan nan nan nan nan nan nan nan nan nan nan nan nan nan nan nan nan nan nan nan nan nan nan nan nan nan nan nan nan nan nan nan nan nan
nan 8 7 7 11 12 8 6 8 8 8 8 9 9 9 11 13 12 11 11 12 11 11 10 9 9 9 8 7 6 8 9 11 11 12 11 10 9 8 8 7 6 6 6 6 6 7 7 7 8 8 7 7 8 8 9 11 13 14 15 17 18 18 18 18 18 18 19 19 19 19 19 20 19 16 11 7 4 3 4 5 5 5 5 4 nan
nan 9 8 7 9 11 8 6 7 7 7 8 8 7 8 12 12 11 9 10 11 12 11 11 10 11 12 11 9 9 9 11 12 14 16 16 15 13 12 11 9 8 7 6 5 5 5 5 5 6 6 6 7 8 9 11 14 17 18 18 19 18 17 17 17 17 18 19 20 21 22 22 20 17 13 9 6 4 4 5 6 6 5 5 5 nan
nan 9 9 9 9 9 8 7 7 7 8 8 7 7 10 12 10 9 7 7 8 10 11 10 11 12 13 10 7 6 6 8 9 11 14 16 17 17 16 14 12 12 11 9 8 8 7 6 7 7 7 8 9 10 11 13 15 16 16 15 15 13 12 12 13 13 14 16 16 17 18 19 17 15 13 11 8 7 6 6 6 6 5 5 5 nan
nan 9 9 10 9 9 8 8 8 8 9 9 8 8 10 11 9 8 7 7 8 9 10 10 10 11 11 7 1 -1 1 4 6 7 9 11 12 13 13 13 12 13 13 12 11 11 10 10 10 10 10 11 13 14 14 15 14 13 12 10 9 8 8 8 8 8 9 10 10 11 13 14 15 15 14 13 12 11 9 8 7 6 6 6 5 nan
nan 9 10 10 10 10 9 8 9 10 10 10 9 9 9 10 9 8 8 9 10 10 10 10 9 8 8 3 -2 -1 3 5 6 7 8 9 9 9 10 10 9 10 10 10 10 10 10 10 10 11 11 13 15 16 16 14 12 10 8 7 6 6 5 5 5 5 5 6 6 7 9 11 12 13 14 14 14 13 12 10 9 8 8 7 7 nan
nan 9 10 10 10 9 8 8 9 10 11 9 9 9 9 10 9 9 9 10 10 11 11 10 8 8 6 3 3 6 9 10 11 12 12 12 11 11 10 9 9 8 9 9 9 9 9 9 10 11 12 14 15 16 15 12 10 8 7 6 6 5 5 4 4 4 4 5 5 5 6 7 8 9 11 12 12 13 13 12 12 11 10 9 9 nan
nan 9 9 9 9 9 8 8 8 9 9 8 8 8 9 10 10 10 10 11 11 11 10 9 9 9 8 7 8 11 11 11 13 13 13 14 15 14 11 11 10 10 10 11 11 11 11 12 13 14 15 16 15 15 12 9 8 7 7 6 5 4 4 4 4 4 5 5 5 5 6 6 6 7 7 9 10 11 11 12 12 11 11 10 10 nan
nan 8 8 9 9 8 9 9 9 9 9 8 8 7 9 10 10 10 10 11 11 10 9 8 7 8 9 9 9 8 7 8 7 6 7 9 8 7 7 10 12 13 12 13 13 14 14 15 16 17 17 15 14 12 10 8 8 7 6 5 4 4 3 3 4 4 5 5 5 6 6 6 6 6 6 7 7 8 9 9 10 10 10 9 9 nan
nan 8 9 10 9 9 9 9 10 10 10 10 10 9 9 9 9 9 9 10 9 9 7 6 7 8 10 10 8 6 6 7 6 5 6 5 2 3 8 11 13 12 11 13 13 14 15 15 14 14 14 12 10 9 9 8 7 6 5 4 3 3 3 3 4 4 5 5 6 6 6 6 6 6 6 6 6 6 7 7 7 8 8 8 7 nan
nan 10 10 10 10 10 9 9 10 9 10 10 11 11 10 9 8 7 7 8 8 9 8 7 8 9 9 9 9 8 9 11 12 13 14 12 12 14 16 16 14 12 13 14 14 14 13 12 11 11 10 10 9 9 9 8 8 6 5 4 3 3 3 4 4 5 6 6 6 6 7 7 7 7 7 7 7 6 6 6 6 7 7 6 6 nan
nan 11 11 10 10 10 10 10 10 8 8 9 9 10 10 10 9 6 6 7 8 9 10 10 10 9 9 9 10 10 12 13 14 15 17 18 20 21 21 19 17 16 17 16 16 14 11 11 11 11 11 10 10 9 9 8 7 6 5 5 4 4 5 5 6 6 7 7 7 7 7 7 8 7 7 7 7 7 7 7 7 7 7 7 7 nan
nan 10 9 9 9 9 9 10 9 8 8 8 8 9 10 10 9 8 8 8 9 10 11 10 10 11 12 10 10 11 12 12 13 12 13 14 16 16 16 14 14 14 15 15 15 11 9 12 14 15 12 12 11 11 11 10 8 7 7 7 7 6 7 7 7 7 8 8 8 8 8 8 8 8 8 8 8 8 8 8 8 8 8 8 8 nan
nan 9 8 8 8 9 10 9 9 8 8 9 9 10 10 9 8 8 8 8 9 11 11 9 9 11 13 13 12 12 11 12 12 12 11 11 12 11 11 9 9 10 10 10 10 8 8 13 16 16 15 15 14 14 13 11 9 9 9 8 8 8 8 8 8 9 9 9 9 9 9 9 9 9 9 9 9 9 9 9 10 9 9 9 9 nan
nan 9 8 9 9 9 9 9 9 8 8 8 9 9 9 8 8 8 7 8 9 10 10 9 10 11 12 13 13 12 11 10 10 10 10 11 12 11 9 8 8 9 8 8 8 8 11 14 14 13 14 12 9 6 5 6 7 7 7 8 8 8 8 8 9 9 9 10 10 10 10 10 10 10 10 10 10 10 10 11 11 10 10 10 10 nan
nan 9 9 9 9 9 9 9 9 9 9 9 9 8 8 9 9 9 8 9 9 10 9 10 11 13 13 13 12 10 10 10 9 7 8 10 11 12 9 7 7 8 8 8 9 9 12 12 11 10 9 5 1 -0 2 4 6 6 7 7 7 8 8 9 9 10 10 11 11 11 11 11 11 11 11 11 11 11 11 11 11 11 11 10 10 nan
nan 11 10 9 9 9 10 10 10 10 10 10 10 9 9 9 9 9 9 9 10 9 9 9 10 11 11 12 12 10 9 8 7 5 7 8 10 11 9 7 7 7 8 8 9 9 9 10 10 9 5 -1 -1 1 4 5 6 6 6 7 8 8 9 9 10 11 11 11 12 12 11 11 11 11 11 11 11 11 11 11 10 10 11 10 10 nan
nan 10 9 8 9 10 12 12 12 11 10 10 10 10 11 10 9 9 8 8 8 7 8 9 9 8 8 8 10 12 10 6 5 6 7 8 10 12 11 8 8 8 8 9 9 9 9 9 6 1 -6 -6 -2 2 4 5 7 7 7 8 9 9 10 10 11 11 11 12 12 12 11 11 10 10 10 10 10 10 10 10 10 10 10 10 10 nan
nan 9 9 9 11 12 12 12 11 10 9 8 7 7 8 9 9 9 8 9 9 8 8 9 8 7 8 7 8 13 12 7 6 6 8 9 10 10 10 8 8 8 9 9 10 10 9 8 5 1 -4 0 3 4 5 6 7 8 8 9 9 9 10 10 11 11 11 11 11 11 10 10 9 9 9 9 9 9 9 9 9 10 10 10 11 nan
nan 9 10 10 10 11 12 11 9 7 4 4 5 8 9 10 10 9 10 11 11 11 11 10 9 8 9 9 9 11 11 7 6 6 9 11 11 11 12 11 10 10 9 10 10 10 9 8 10 11 11 9 6 5 6 7 7 8 8 9 9 9 9 10 10 10 11 11 10 10 9 9 8 8 8 8 9 9 9 9 10 10 10 10 10 nan
nan 10 10 8 8 9 9 9 7 4 2 6 10 12 12 11 10 10 11 11 11 11 11 11 10 9 8 7 7 8 8 6 6 7 11 12 12 13 15 14 13 12 10 11 11 11 10 10 12 13 12 6 5 5 5 6 7 8 8 9 9 9 9 10 10 10 10 10 10 10 9 8 8 8 8 9 9 10 10 10 10 10 10 10 10 nan
nan 10 10 9 8 7 7 8 7 7 9 12 13 12 12 10 10 11 11 11 11 10 9 9 9 9 7 8 8 9 9 8 8 9 10 11 11 14 16 14 12 10 10 11 11 11 12 11 11 10 7 3 3 4 5 7 8 9 9 9 9 10 10 10 10 11 11 10 10 10 8 8 8 8 8 9 10 10 11 11 11 11 11 11 11 nan
nan 9 10 10 9 8 10 10 11 12 15 15 13 12 11 10 10 11 12 11 10 10 10 9 9 10 10 10 11 12 12 12 11 11 10 10 11 14 13 10 8 7 8 9 9 11 11 11 11 11 12 9 8 7 8 8 9 10 10 10 10 11 11 11 11 11 11 10 10 9 8 8 8 8 9 10 10 11 12 12 12 12 12 12 12 nan
nan 9 9 9 7 7 8 8 8 9 11 12 12 11 9 8 7 8 8 7 8 8 8 8 9 10 11 10 12 14 16 15 13 12 10 11 11 11 9 7 6 6 8 8 9 10 10 10 10 11 14 16 13 10 10 10 10 11 11 11 11 11 12 12 12 12 12 11 10 9 8 8 8 8 9 10 11 12 12 12 13 13 12 12 12 nan
nan 6 5 1 -3 -3 -2 -2 -3 -2 1 5 7 9 8 7 7 9 8 8 8 9 8 8 9 10 10 11 11 12 14 14 11 10 8 10 10 9 7 7 7 8 8 9 10 10 9 9 10 11 13 18 17 15 13 12 12 11 12 12 12 12 12 13 13 13 12 11 10 10 8 8 8 8 9 10 11 11 12 12 12 12 11 11 11 nan
nan 1 -3 -6 -7 -5 -3 -1 -2 -2 2 6 6 6 7 10 11 11 10 10 11 10 10 10 11 11 10 10 10 9 11 12 11 9 7 7 8 9 9 9 9 9 10 10 11 10 8 8 10 12 12 16 19 20 15 13 12 12 12 12 12 12 13 13 13 13 13 12 11 10 9 8 8 8 8 9 10 11 11 11 10 9 9 11 14 nan
nan 3 2 4 5 7 9 10 9 9 11 11 8 7 10 14 12 10 10 11 11 10 10 11 11 12 12 11 11 10 10 11 11 9 8 8 9 10 11 11 11 11 12 12 12 10 8 9 11 11 11 13 17 20 18 15 13 13 13 13 13 13 13 14 14 14 13 13 12 11 9 8 7 7 8 9 9 10 10 9 8 9 11 17 23 nan
nan 10 11 11 12 13 15 16 17 17 16 13 12 16 22 20 15 12 12 11 10 10 9 10 10 12 12 11 11 11 11 11 10 10 11 11 11 11 12 12 13 12 13 13 13 13 13 13 13 13 13 11 12 16 20 18 18 18 18 16 15 15 14 14 14 14 13 12 11 10 8 7 6 6 7 9 10 10 10 8 9 12 20 24 25 nan
nan 13 14 15 15 17 20 22 20 17 15 15 18 24 27 22 15 12 12 11 10 10 10 10 11 11 11 11 11 12 14 14 14 14 14 12 11 11 12 13 13 13 14 14 14 15 16 16 15 14 13 11 11 14 19 22 24 24 24 21 19 18 15 13 12 11 10 9 8 7 6 5 5 6 8 9 10 11 10 9 12 18 26 24 19 nan
nan 15 17 17 18 20 23 22 17 14 13 14 18 23 25 20 14 12 11 11 10 10 11 11 11 11 10 12 14 15 15 14 13 13 13 12 11 11 11 11 11 11 13 14 14 14 14 14 13 11 10 11 11 11 14 18 20 21 21 22 22 19 14 12 10 10 9 8 7 6 5 6 7 8 10 11 12 12 11 11 13 17 20 17 14 nan
nan 13 15 15 16 17 17 15 14 13 14 16 19 22 20 15 11 10 10 9 10 10 11 10 10 9 10 12 12 13 11 8 6 8 11 12 11 10 10 10 8 8 9 10 9 10 11 12 11 9 7 8 9 9 9 10 12 13 12 15 17 16 12 12 12 12 13 12 10 9 9 10 10 11 12 12 13 12 12 12 12 12 12 12 11 nan
nan 11 12 12 12 12 12 12 13 14 15 17 18 17 14 12 10 9 9 10 11 11 11 10 10 10 10 9 8 9 8 6 4 5 8 12 11 9 9 8 6 6 6 7 6 6 8 8 8 7 6 8 9 10 10 9 10 9 9 10 11 13 14 16 18 19 20 19 19 18 17 16 15 15 14 14 13 13 13 12 10 8 5 9 10 nan
nan 11 10 10 11 11 11 12 11 11 12 13 14 13 13 12 11 10 10 11 11 11 11 10 10 11 11 11 10 9 8 5 0 -1 4 12 11 9 7 5 5 6 7 9 8 7 6 4 4 7 9 10 11 11 11 12 12 11 11 10 10 12 18 20 21 22 21 23 26 27 26 25 23 21 19 18 16 15 14 13 10 4 -3 2 6 nan
nan 11 11 12 12 11 11 11 11 11 11 11 11 12 12 12 12 12 11 11 11 10 9 10 10 10 11 12 11 9 6 1 -4 -3 5 13 12 9 6 6 6 8 9 10 9 10 9 5 4 6 9 10 10 10 10 12 13 13 13 11 10 11 17 19 19 19 18 20 23 25 28 30 29 28 26 23 20 17 14 13 10 4 -4 -7 -4 nan
nan 11 12 13 12 11 11 11 12 12 12 12 12 12 12 12 12 12 11 11 10 9 8 9 10 10 10 10 9 8 6 2 -0 2 9 12 11 9 8 9 9 9 10 9 9 11 10 8 6 5 5 7 10 11 12 12 13 14 13 12 11 11 13 14 14 15 17 16 16 17 20 22 23 24 24 19 15 12 10 10 9 7 3 -5 -9 nan
nan 12 13 13 12 11 10 12 13 13 14 14 13 12 11 11 10 10 10 10 9 9 9 9 9 9 8 8 7 7 6 5 5 8 11 12 10 9 9 10 9 9 9 10 9 9 7 8 8 8 7 9 11 12 13 13 13 12 11 12 12 11 11 11 11 11 13 12 11 11 11 12 13 13 14 11 10 10 10 10 10 10 10 6 1 nan
nan 13 12 12 10 10 12 14 13 12 12 11 10 8 8 8 7 8 9 9 9 9 9 10 10 8 4 3 4 5 6 5 5 7 10 11 10 9 8 8 8 9 10 10 9 8 8 8 10 12 14 12 9 7 7 9 10 10 9 10 11 11 11 11 11 9 9 8 7 7 6 7 8 9 10 13 17 20 22 23 22 21 18 18 15 nan
nan 11 10 10 9 10 11 11 9 8 8 7 7 6 7 7 7 7 9 10 10 9 9 10 11 10 8 6 5 4 4 4 5 8 11 11 10 9 7 7 9 10 10 9 9 9 9 10 11 13 14 12 8 4 5 7 8 8 9 9 9 9 9 11 11 10 9 10 9 8 8 9 10 10 12 18 22 24 26 29 29 28 29 32 30 nan
nan 9 9 8 9 9 9 7 7 8 9 8 7 7 8 9 10 11 12 12 12 12 10 9 9 11 15 15 12 10 10 12 13 14 16 15 13 11 9 8 9 10 11 12 12 12 11 10 9 8 7 9 10 10 11 9 7 6 7 10 11 11 9 10 11 11 10 12 13 13 13 13 12 11 11 14 15 16 17 19 22 24 26 29 33 nan
nan 10 8 8 10 9 7 8 10 11 10 9 9 11 12 13 14 15 14 14 13 13 14 12 11 12 15 17 18 18 17 17 16 16 17 15 11 9 9 9 10 11 13 14 14 13 11 9 8 7 6 6 7 8 9 8 6 3 4 8 10 10 9 7 8 9 9 10 12 12 11 10 9 9 9 8 9 10 11 12 15 18 17 15 19 nan
nan 10 9 10 10 10 10 11 11 10 9 10 12 14 13 14 14 14 14 13 13 13 13 14 13 13 14 15 15 16 17 15 14 13 12 10 8 6 7 9 10 10 11 10 10 10 9 8 8 9 9 7 8 9 9 7 5 6 9 9 6 5 7 8 9 10 9 10 11 9 6 6 8 9 10 9 9 10 9 9 9 10 12 11 11 nan
nan 11 11 11 11 11 10 9 9 10 11 12 12 11 11 12 12 10 9 10 10 10 10 10 10 10 11 11 12 14 16 15 14 13 11 12 10 9 7 7 8 8 9 10 10 10 9 8 9 10 9 9 10 11 10 9 10 12 13 9 7 10 17 19 17 15 12 11 12 12 11 10 11 12 11 12 12 12 12 10 7 5 5 7 9 nan
nan 12 11 11 10 9 8 10 12 13 13 12 10 10 11 10 8 6 6 8 8 8 9 9 9 9 9 10 12 14 16 17 16 14 14 14 13 11 9 9 8 8 9 10 11 12 12 11 11 10 10 10 10 9 8 9 12 13 13 10 9 12 16 16 14 12 12 12 12 13 13 12 11 12 13 13 13 12 13 13 13 12 7 6 8 nan
nan 11 10 11 10 10 11 12 12 12 11 10 10 10 10 9 7 7 10 11 10 9 10 11 12 12 11 10 10 12 14 15 16 16 15 12 9 6 8 11 11 10 9 9 9 10 13 14 13 11 12 12 11 10 10 9 10 10 10 10 10 8 3 3 5 7 10 11 10 9 9 10 11 11 12 12 12 11 11 12 14 16 14 10 9 nan
nan 10 10 10 10 10 10 10 10 10 10 10 10 11 11 11 12 13 12 11 10 10 10 11 12 12 10 10 10 11 11 11 12 14 15 14 12 13 14 14 13 12 12 10 8 7 8 10 11 11 12 12 11 9 9 8 9 10 10 11 11 11 6 4 5 8 10 9 9 10 11 11 12 12 12 11 11 11 11 11 11 12 13 12 11 nan
nan 10 10 10 10 9 9 10 11 11 10 10 11 12 12 13 13 12 10 10 10 11 11 11 10 9 7 8 9 10 9 8 9 11 12 15 18 20 17 14 12 10 11 11 9 8 6 5 6 8 10 12 12 11 9 8 9 10 11 12 13 13 12 11 11 10 10 10 10 11 12 12 12 12 12 11 12 12 13 13 12 12 11 11 11 nan
nan 9 10 10 10 10 11 11 11 11 10 10 11 11 11 11 10 9 10 11 11 11 11 11 10 8 7 8 8 8 7 7 8 9 9 11 13 14 14 15 14 12 10 10 9 9 8 6 5 5 6 9 10 12 11 11 10 10 11 12 13 12 12 12 12 11 11 10 10 9 11 12 12 11 11 11 12 13 14 14 15 15 14 13 12 nan
nan 10 10 10 10 10 10 11 11 10 10 10 10 10 10 8 7 8 12 12 12 11 11 10 9 9 10 10 9 8 7 8 9 9 10 11 12 13 14 14 16 16 15 14 14 14 13 12 10 7 5 6 7 8 10 12 12 11 11 11 12 12 11 11 11 11 12 11 10 10 11 10 10 10 11 10 10 11 11 12 14 16 16 15 14 nan
nan 11 10 11 11 10 10 10 10 9 9 9 10 10 10 9 10 14 15 12 12 12 11 9 9 10 10 10 10 9 9 11 11 11 11 12 12 13 13 12 13 14 16 18 19 20 21 22 21 16 9 4 3 4 8 10 11 11 11 11 12 12 12 11 12 12 12 12 12 11 9 9 10 10 10 10 9 8 8 10 11 13 14 15 15 nan
nan 11 11 11 11 10 10 10 9 9 9 9 10 10 11 13 15 16 14 12 11 10 10 10 10 10 10 9 9 10 11 12 11 10 10 11 11 11 10 10 10 11 12 15 16 17 19 25 29 30 22 9 2 -0 5 9 10 11 12 12 12 12 12 12 12 12 12 12 14 14 12 11 11 11 11 11 10 9 10 11 11 12 13 14 15 nan
nan nan nan nan nan nan nan nan nan nan nan nan nan nan nan nan nan nan nan nan nan nan nan nan nan nan nan nan nan nan nan nan nan nan nan nan nan nan nan nan nan nan nan nan nan nan nan nan nan nan nan nan nan nan nan nan nan nan nan nan nan nan nan nan nan nan nan nan nan nan nan nan nan nan nan nan nan nan nan nan nan nan nan nan nan nan
CAPE
nan nan nan nan nan nan nan nan nan nan nan nan nan nan nan nan nan nan nan nan nan nan nan nan nan nan nan nan nan nan nan nan 2 2 8 13 18 18 23 23 23 24 23 24 24 26 22 24 24 23 20 20 18 18 21 24 24 25 32 36 36 40 50 60 60 66 56 28 0 0 nan nan nan nan 0 0 nan nan nan nan nan nan nan nan nan nan
nan nan nan nan nan nan nan nan nan nan nan nan nan nan nan nan nan nan nan nan nan nan nan nan nan nan nan nan nan nan nan nan nan nan 2 7 13 13 21 26 26 29 30 29 29 26 23 22 22 17 15 12 8 8 7 8 8 10 13 22 22 32 54 72 72 81 65 31 2 2 0 nan nan nan 1 0 nan nan nan nan nan nan nan 0 0 0
nan nan nan nan nan nan nan nan nan nan nan nan nan nan nan nan nan nan nan nan nan nan nan nan nan nan nan nan nan nan nan nan nan nan nan 3 8 8 15 20 20 22 25 23 23 18 13 7 7 4 3 2 2 2 1 3 3 6 13 19 19 25 39 53 53 57 42 13 1 1 3 1 2 2 4 2 0 0 nan nan nan 1 2 1 1 2
nan nan nan nan nan nan nan nan nan nan nan nan nan nan nan nan nan nan nan nan nan nan nan nan nan nan nan nan nan nan nan nan nan nan nan nan 0 0 3 9 9 9 14 13 13 10 7 3 3 1 0 0 nan nan 0 3 3 14 22 21 21 15 10 11 11 10 3 nan 1 1 3 5 6 6 10 10 6 6 4 4 4 6 7 6 6 5
nan nan nan nan nan nan nan nan nan nan nan nan nan nan nan nan nan nan nan nan nan nan nan nan nan nan nan nan nan nan nan nan nan nan nan nan nan nan nan nan nan 0 1 1 1 2 1 1 1 1 0 0 nan nan 1 8 8 23 26 15 15 5 1 0 0 nan nan nan nan nan 1 1 9 9 15 15 13 13 9 8 8 10 12 12 12 12
nan nan nan nan nan nan nan nan nan nan nan nan nan nan nan nan nan nan nan nan nan nan nan nan nan nan nan nan nan nan nan nan nan nan nan nan nan nan nan nan nan nan nan nan nan nan nan nan nan nan nan nan 1 1 3 15 15 21 13 3 3 nan nan nan nan nan nan nan nan nan nan nan 2 2 11 13 16 16 15 13 13 13 9 12 12 14
nan nan nan nan nan nan nan nan nan nan nan nan nan nan nan nan nan nan nan nan nan nan nan nan nan nan nan nan nan nan nan nan nan nan nan nan nan nan nan nan nan nan nan nan nan nan nan nan nan nan nan nan nan nan 5 11 11 8 2 nan nan nan nan nan nan nan nan nan nan nan nan nan nan nan 2 5 12 12 17 19 19 18 13 12 12 15
nan nan nan nan nan nan nan nan nan nan nan nan nan nan nan nan nan nan nan nan nan nan nan nan nan nan nan nan nan nan nan nan nan nan nan nan nan nan nan nan nan nan nan nan nan nan nan nan nan nan nan nan nan nan 0 nan nan nan nan nan nan nan nan nan nan nan nan nan nan nan nan nan nan nan nan nan nan nan 1 6 6 13 15 12 12 12
nan nan nan nan nan nan nan nan nan nan nan nan nan nan nan nan nan nan nan nan nan nan nan nan nan nan nan nan nan nan nan nan nan nan nan nan nan nan nan nan nan nan nan nan nan nan nan nan nan nan nan nan nan nan nan nan nan nan nan nan nan nan nan nan nan nan nan nan nan nan nan nan nan nan nan nan nan nan nan nan nan 1 3 4 4 5
nan nan nan nan nan nan nan nan nan nan nan nan nan nan nan nan nan nan nan nan nan nan nan nan nan nan nan nan nan nan nan nan nan nan nan nan nan nan nan nan nan nan nan nan nan nan nan nan nan nan nan nan nan nan nan nan nan nan nan nan nan nan nan nan nan nan nan nan nan nan nan nan nan nan nan nan nan nan nan nan nan nan nan 0 0 0
nan nan nan nan nan nan nan nan nan nan nan nan nan nan nan nan nan nan nan nan nan nan nan nan nan nan nan nan nan nan nan nan nan nan nan nan nan nan nan nan nan nan nan nan nan nan nan nan nan nan nan nan nan nan nan nan nan nan nan nan nan nan nan nan nan nan nan nan nan nan nan nan nan nan nan nan nan nan nan nan nan nan nan nan nan nan
nan nan nan nan nan nan nan nan nan nan nan nan nan nan nan nan nan nan nan nan nan nan nan nan nan nan nan nan nan nan nan nan nan nan nan nan nan nan nan nan nan nan nan nan nan nan nan nan nan nan nan nan nan nan nan nan nan nan nan nan nan nan nan nan nan nan nan nan nan nan nan nan nan nan nan nan nan nan nan nan nan nan nan nan nan nan
nan nan nan nan nan nan nan nan nan nan nan nan nan nan nan nan nan nan nan nan nan nan nan nan nan nan nan nan nan nan nan nan nan nan nan nan nan nan nan nan nan nan nan nan nan nan nan nan nan nan nan nan nan nan nan nan nan nan nan nan nan nan nan nan nan nan nan nan nan nan nan nan nan nan nan nan nan nan nan nan nan nan nan nan nan nan
1 nan nan nan nan nan nan nan nan nan nan nan nan nan nan nan nan nan nan nan nan nan nan nan nan nan nan nan nan nan nan nan nan nan nan nan nan nan nan nan nan nan nan nan nan nan nan nan nan nan nan nan nan nan nan nan nan nan nan nan nan nan 0 0 0 1 1 1 1 1 0 nan nan nan nan nan nan nan nan nan nan nan nan nan nan nan
1 2 2 0 0 nan nan nan nan nan nan nan nan nan nan nan nan nan nan nan nan nan nan nan nan nan nan nan nan nan nan nan nan nan nan nan nan nan nan nan nan nan nan nan nan nan nan nan nan nan nan nan nan nan nan nan nan 0 1 2 2 3 3 4 4 4 4 5 3 3 3 1 0 0 0 0 0 0 nan nan nan nan nan 0 0 0
1 2 3 3 3 2 0 nan nan nan nan nan nan nan nan nan nan nan nan nan nan nan nan nan nan nan nan nan nan nan nan nan nan nan nan nan nan nan nan nan nan nan nan nan nan nan nan nan nan nan nan nan nan nan nan 0 0 3 3 5 5 6 7 7 7 7 7 7 7 7 5 5 4 4 3 3 2 2 2 2 2 2 2 1 1 2
2 4 5 5 5 2 nan nan nan nan nan nan nan nan nan nan nan nan nan nan nan nan nan nan nan nan nan nan nan nan nan nan nan nan nan nan nan nan nan nan nan nan nan nan nan nan nan nan nan nan nan nan nan nan nan 0 0 1 4 5 5 6 7 8 8 10 10 10 9 9 8 9 8 8 7 7 6 6 5 6 6 6 6 5 5 4
5 6 8 7 7 4 nan nan nan nan nan nan nan nan nan nan nan nan nan nan nan nan nan nan nan nan nan nan nan nan nan nan nan nan nan nan nan nan nan nan nan nan nan nan nan nan nan nan nan nan nan nan nan nan nan nan nan 0 1 2 2 4 6 9 9 10 12 11 12 12 11 12 11 11 10 10 9 9 9 9 9 10 9 7 7 6
16 20 18 13 13 11 1 nan nan nan nan nan nan nan nan nan nan nan nan nan nan nan nan nan nan nan nan nan nan nan nan nan nan nan nan nan nan nan nan nan nan nan nan nan nan nan nan nan nan nan nan nan nan nan nan nan nan nan 0 2 2 3 7 9 9 14 15 15 15 15 15 15 15 15 13 12 11 11 12 13 13 12 9 8 8 9
19 19 18 10 10 9 8 0 nan nan nan nan 0 0 nan nan nan nan nan nan nan nan nan nan nan nan nan nan nan nan nan nan nan nan nan nan nan nan nan nan nan nan nan nan nan nan nan nan nan nan nan nan nan nan nan nan nan 0 1 4 4 6 11 15 15 18 19 19 19 19 19 17 17 17 14 14 14 14 14 14 14 14 12 12 12 12
2 2 2 1 1 4 8 1 nan nan 4 13 2 2 1 nan nan nan nan nan nan nan nan nan nan nan nan nan nan nan nan nan nan nan nan nan nan nan nan nan nan nan nan nan nan nan nan nan nan nan nan nan nan nan nan nan nan 1 4 6 6 10 14 17 17 22 23 23 24 24 23 20 17 17 16 17 17 17 18 17 17 15 15 15 15 15
nan 0 nan nan nan 0 13 2 1 1 8 3 1 1 3 2 3 3 0 0 0 nan nan 1 1 2 2 1 nan nan nan nan nan nan 0 0 nan nan nan nan nan nan nan nan nan nan nan nan nan nan nan nan nan nan nan 0 0 3 6 10 10 13 14 19 19 21 23 25 24 24 25 23 19 19 18 18 18 18 19 20 20 20 19 19 19 19
nan nan nan nan nan 2 9 1 1 1 11 4 6 6 5 4 3 3 1 0 0 nan 2 5 5 2 nan nan nan nan nan nan nan nan 1 4 6 6 nan nan nan nan nan nan nan nan nan nan nan nan nan 3 2 2 0 1 1 3 7 10 10 12 15 17 17 20 25 28 28 28 26 26 21 21 20 22 23 23 24 24 24 25 24 25 25 24
nan nan nan 5 5 10 19 22 17 17 24 27 17 17 4 2 1 1 1 2 2 12 15 11 11 0 nan nan nan nan nan nan nan nan 10 13 14 14 nan nan nan nan nan nan nan nan nan nan nan nan nan 1 4 4 6 4 4 4 5 9 9 9 13 17 17 21 25 31 33 33 35 31 28 28 27 29 29 29 27 30 30 31 30 29 29 28
nan 0 12 16 16 24 18 12 24 24 19 8 19 19 19 18 34 34 46 27 27 9 8 8 8 7 1 1 nan nan nan 4 nan nan 15 19 9 9 nan nan nan nan nan nan nan nan nan nan nan nan nan nan 5 5 10 13 13 16 17 16 16 16 18 22 22 25 33 42 45 45 45 39 38 38 36 36 37 37 41 42 42 39 36 33 33 29
6 11 11 17 17 29 30 28 26 26 17 3 1 1 1 4 0 0 nan nan nan nan nan nan nan 1 nan nan nan nan 2 nan nan nan 13 19 8 8 0 nan nan nan nan nan nan nan nan nan nan nan nan nan 6 6 12 23 23 30 31 29 29 32 34 38 38 44 52 54 54 54 51 46 43 43 43 43 47 47 51 50 50 44 38 34 34 29
18 17 21 21 21 20 20 22 24 24 29 19 2 2 nan nan nan nan nan nan nan nan nan 1 1 0 0 0 0 0 nan nan nan nan 3 nan nan nan nan nan nan nan nan nan nan nan nan nan nan nan nan nan nan nan 18 25 25 34 37 41 41 47 50 55 55 65 65 67 60 60 55 51 47 47 48 46 52 52 59 53 53 45 38 38 38 36
5 3 4 6 6 9 12 14 15 15 14 15 19 19 7 nan nan nan 1 nan nan nan 5 6 6 3 1 nan nan nan nan nan nan nan nan nan nan nan nan nan nan nan nan nan nan 0 9 10 10 1 nan nan nan nan 6 26 26 32 38 46 46 54 60 70 70 72 67 70 62 62 59 52 45 45 41 45 51 51 55 52 52 45 42 25 25 1
nan nan nan 1 1 4 6 7 6 6 7 9 14 14 6 nan 0 0 1 1 1 4 8 5 5 3 2 1 nan nan nan nan nan nan nan nan nan nan nan nan nan nan nan 0 0 nan nan nan nan nan nan nan nan nan nan 24 24 32 38 40 40 43 45 46 46 47 50 49 48 48 50 42 38 38 38 41 50 50 55 49 49 49 31 12 12 nan
nan nan nan nan nan 0 0 nan 0 0 4 8 12 12 5 nan nan nan 0 0 0 4 7 7 7 8 8 6 3 3 nan nan nan nan nan nan nan nan nan nan nan nan nan nan nan nan nan nan nan nan nan nan nan nan nan nan nan 0 6 28 28 22 21 20 20 22 24 28 33 33 35 34 31 31 33 41 47 47 53 53 53 34 4 nan nan nan
nan nan nan nan nan nan nan nan nan nan 2 6 6 6 0 nan nan nan nan nan nan 6 9 10 10 11 12 9 8 8 2 nan nan nan nan nan 3 3 nan nan nan nan nan nan nan nan nan nan nan nan nan nan nan nan nan nan nan nan nan nan nan nan 9 12 12 15 19 21 22 22 23 27 29 29 35 41 51 51 57 56 56 31 nan nan nan nan
nan nan nan nan nan nan nan nan nan nan nan nan nan nan nan nan nan nan nan nan nan 1 1 3 3 2 1 1 1 1 nan nan nan nan nan 0 0 0 0 nan nan nan nan nan nan nan nan nan nan nan nan nan nan nan nan nan nan nan nan nan nan nan 5 16 16 15 15 23 27 27 27 29 32 32 41 53 62 62 67 69 69 66 14 nan nan nan
nan nan nan nan nan nan nan nan nan nan nan nan nan nan nan nan nan nan nan nan nan nan nan nan nan 2 3 5 3 3 8 9 12 12 nan nan nan nan nan nan nan nan nan nan nan nan nan nan nan nan nan nan nan nan nan nan nan nan nan nan nan nan nan 3 3 1 5 10 13 13 27 32 36 36 40 50 60 60 69 72 72 77 59 nan nan nan
nan nan nan nan nan nan nan nan nan nan nan nan nan nan nan nan nan nan nan nan nan nan nan 3 3 8 5 3 2 2 0 nan nan nan 0 nan nan nan 1 nan nan nan nan nan nan nan nan nan nan 0 nan nan nan nan nan nan nan nan nan nan nan nan nan nan nan nan nan 0 nan nan nan 1 20 20 26 35 42 42 54 63 63 70 68 28 28 2
nan nan nan nan nan nan nan nan nan nan nan nan nan nan nan nan nan nan nan nan nan 0 2 3 3 3 1 0 0 0 nan nan nan nan 7 1 2 2 3 1 1 nan nan nan nan nan nan 0 0 3 0 nan nan nan nan nan nan nan nan nan nan nan nan nan nan nan nan nan nan nan nan nan nan nan 1 15 33 33 47 56 56 60 61 61 61 30
nan nan nan nan nan nan nan nan nan nan nan nan nan nan nan nan nan nan nan nan nan nan 1 nan nan nan nan 3 2 2 1 nan nan nan 10 6 4 4 4 5 5 2 0 nan nan nan nan nan nan 1 2 nan nan nan nan nan nan nan nan nan nan nan nan nan nan nan nan nan nan nan nan nan nan nan nan 18 36 36 41 45 45 49 47 51 51 43
nan nan nan nan nan nan nan nan nan nan nan nan nan nan 0 nan nan nan nan nan nan nan nan nan nan nan 1 nan nan nan nan nan nan nan 0 nan 2 2 5 7 7 7 1 1 1 nan nan nan nan nan 0 nan nan nan nan nan nan nan nan nan nan nan nan nan nan nan nan nan nan nan nan nan nan nan nan 18 18 18 31 40 40 40 45 45 45 44
nan nan nan nan nan nan nan nan nan nan nan 0 nan nan nan nan nan nan nan nan nan nan nan nan nan nan nan 0 nan nan nan nan nan nan nan nan nan nan 1 3 3 6 3 4 4 3 nan nan nan nan nan nan nan nan nan nan nan nan nan nan nan nan nan nan nan nan nan nan nan nan nan nan nan nan nan nan nan nan nan nan nan 6 26 23 23 36
nan nan nan nan nan nan nan nan nan nan nan nan nan nan nan nan nan nan nan nan nan nan nan nan nan nan nan nan nan nan nan nan nan nan nan nan nan nan nan 0 0 2 1 nan nan nan nan nan nan nan nan nan nan nan nan nan nan nan nan nan nan nan nan nan nan nan nan nan nan nan nan nan nan nan nan nan nan nan nan nan nan nan nan nan nan 6
nan nan nan nan nan nan nan nan nan nan nan nan nan nan nan nan nan nan nan nan nan nan nan nan nan nan nan nan nan nan nan nan nan nan nan nan nan nan nan nan nan 0 1 0 0 nan nan nan nan 0 1 0 nan nan nan nan nan 0 2 nan nan nan 0 nan nan nan nan nan nan nan nan nan nan nan nan nan nan nan nan nan nan nan nan nan nan nan
nan nan nan nan nan nan nan nan nan nan nan nan nan nan nan nan nan nan nan nan nan nan nan nan nan nan nan nan nan nan nan nan nan nan nan nan nan nan nan 2 2 8 11 4 4 2 5 3 3 3 2 2 2 2 2 1 1 7 10 1 1 nan nan 1 1 nan nan nan nan nan nan nan nan nan nan nan nan nan nan nan nan nan nan nan nan nan
2 0 nan nan nan nan nan nan nan nan nan nan nan nan nan nan nan nan nan nan nan nan nan nan nan nan nan nan nan nan nan nan nan nan nan nan nan nan nan nan nan 0 nan nan nan nan 1 5 5 4 2 2 0 0 1 2 2 4 6 1 1 1 3 2 2 nan nan nan nan nan 0 0 nan nan nan nan nan nan nan nan nan nan nan nan nan nan
nan nan nan nan nan nan nan nan 0 0 nan nan nan nan nan nan nan nan nan nan nan nan nan nan nan nan nan nan nan nan nan nan nan nan nan nan nan nan nan nan nan nan nan nan nan nan 0 3 3 1 2 1 0 0 1 2 2 2 2 5 5 4 0 nan nan nan nan nan nan nan nan nan nan nan nan nan nan nan nan 3 3 15 16 0 0 nan
nan nan nan nan nan nan nan nan nan nan nan nan nan nan nan nan nan nan nan nan nan nan nan nan nan nan nan nan nan nan nan nan nan nan nan nan nan nan nan nan nan nan nan nan nan nan 0 2 2 0 1 0 nan nan nan 0 0 0 nan 2 2 3 2 0 0 nan nan nan nan nan nan nan nan nan nan nan nan nan nan 0 0 0 12 6 6 2
nan nan nan nan nan nan nan nan nan nan nan nan nan nan nan nan nan nan nan nan nan nan nan nan nan nan nan nan nan nan nan nan nan nan nan nan 7 7 nan nan nan nan nan nan nan 0 0 0 0 0 nan nan nan nan nan 0 0 0 1 1 1 2 nan 0 0 0 nan nan nan nan 0 0 0 0 nan nan nan nan 0 0 0 0 1 4 4 4
nan nan nan nan nan nan nan nan nan nan nan nan nan nan nan nan nan nan nan nan nan nan nan nan nan nan nan nan nan nan nan nan nan nan nan nan nan nan nan nan nan nan nan nan nan nan nan nan nan nan nan nan nan nan nan nan nan nan 0 1 1 nan nan nan nan nan 0 1 0 0 nan 2 1 1 3 2 1 1 0 0 0 1 nan 0 0 3
nan nan nan nan nan nan nan nan nan nan nan nan nan nan nan nan nan nan nan nan nan nan nan nan nan nan nan nan nan nan nan nan nan nan nan nan nan nan nan nan nan nan nan nan nan nan nan nan nan nan nan nan nan nan nan nan nan nan nan nan nan nan nan nan nan nan nan 0 1 1 0 2 6 6 8 6 4 4 3 1 1 1 0 0 0 3
nan nan nan nan nan nan nan nan nan nan nan nan nan nan nan nan nan nan nan nan nan nan nan nan nan nan nan nan nan nan nan nan nan nan nan nan nan nan nan nan nan nan nan nan nan nan nan nan nan nan nan nan nan nan nan nan nan nan nan nan nan nan nan nan nan nan nan nan nan nan 0 2 5 5 9 9 9 9 7 3 3 0 0 1 1 2
nan nan nan nan nan nan nan nan nan nan nan nan nan nan nan nan 9 9 nan nan nan nan nan nan nan nan nan nan nan nan nan nan nan nan nan nan nan nan nan nan nan nan nan nan nan nan nan nan nan nan nan nan nan nan nan nan nan nan nan nan nan nan nan nan nan nan nan nan nan nan nan 1 2 2 5 6 8 8 5 6 6 1 0 0 0 2
nan nan nan nan nan nan nan nan nan nan nan nan nan nan nan nan nan nan nan nan nan nan nan nan nan nan nan nan nan nan nan nan nan nan nan nan nan nan nan nan nan nan nan nan nan nan nan nan nan nan 3 0 nan nan nan nan nan nan nan nan nan nan nan nan nan nan nan nan nan nan nan nan 0 0 0 2 4 4 3 3 3 1 nan nan nan nan
nan nan nan nan nan nan nan nan nan nan nan nan nan nan nan nan nan nan nan nan nan nan nan nan nan nan nan nan nan nan nan nan nan nan nan nan nan nan nan nan nan nan nan nan nan nan nan nan nan nan 2 16 2 2 nan nan nan nan nan nan nan nan nan nan nan nan 0 nan nan nan nan nan nan nan nan 0 2 2 1 1 1 nan nan nan nan nan